GW1476 Weather Reports


Display with metric or nautical units.
time (UTC)temp
F
wind
direction
speed
MPH
gust
MPH
rain 1hr
in
rain 24hr
in
rain mn
in
humidity
%
barometer
mb
20260506012147 66 225 2.0 2.0 0.00 0.00 0.00 75 1010.8
20260506010911 66 180 2.0 2.0 0.00 0.00 0.00 73 1011.1
20260506003348 68 180 1.0 1.0 0.00 0.00 0.00 66 1011.1
20260506002745 69 180 0.0 0.0 0.00 0.00 0.00 65 1011.1
20260506002128 69 225 0.0 2.0 0.00 0.00 0.00 65 1011.1
20260506001517 70 203 1.0 2.0 0.00 0.00 0.00 62 1011.1
20260506000919 70 158 0.0 2.0 0.00 0.00 0.00 61 1011.1
20260506000349 71 248 0.0 0.0 0.00 0.00 0.00 59 1011.1
20260505235739 71 180 2.0 2.0 0.00 0.00 0.00 59 1011.1
20260505235119 71 225 0.0 1.0 0.00 0.00 0.00 57 1011.1
20260505234527 72 180 1.0 1.0 0.00 0.00 0.00 57 1011.5
20260505233341 72 180 1.0 2.0 0.00 0.00 0.00 55 1011.5
20260505232713 74 203 2.0 2.0 0.00 0.00 0.00 53 1011.5
20260505232150 74 158 2.0 2.0 0.00 0.00 0.00 50 1011.5
20260505231552 74 203 0.0 2.0 0.00 0.00 0.00 49 1011.5
20260505230932 75 158 1.0 2.0 0.00 0.00 0.00 48 1011.5
20260505230345 75 248 4.0 4.0 0.00 0.00 0.00 49 1011.5
20260505225114 76 23 3.0 4.0 0.00 0.00 0.00 46 1011.5
20260505224513 76 45 3.0 4.0 0.00 0.00 0.00 46 1011.5
20260505223921 76 270 2.0 7.0 0.00 0.00 0.00 46 1011.5
20260505223312 76 270 2.0 4.0 0.00 0.00 0.00 45 1011.5
20260505222747 77 270 4.0 4.0 0.00 0.00 0.00 45 1011.5
20260505222114 77 225 2.0 6.0 0.00 0.00 0.00 45 1011.5
20260505221516 78 158 2.0 4.0 0.00 0.00 0.00 46 1011.5
20260505220313 79 270 1.0 3.0 0.00 0.00 0.00 46 1011.8
20260505215741 81 270 1.0 2.0 0.00 0.00 0.00 44 1011.5
20260505215149 82 203 2.0 5.0 0.00 0.00 0.00 45 1011.8
20260505214545 80 248 3.0 4.0 0.00 0.00 0.00 45 1011.5
20260505213941 81 203 5.0 5.0 0.00 0.00 0.00 45 1011.8
20260505213316 80 338 4.0 4.0 0.00 0.00 0.00 46 1011.5
20260505212742 80 68 3.0 4.0 0.00 0.00 0.00 46 1011.5
20260505212125 79 270 2.0 4.0 0.00 0.00 0.00 47 1011.5
20260505211527 79 23 1.0 5.0 0.00 0.00 0.00 47 1011.5
20260505210344 79 113 3.0 6.0 0.00 0.00 0.00 47 1011.8
20260505205752 80 23 3.0 3.0 0.00 0.00 0.00 45 1011.8
20260505205138 82 23 3.0 3.0 0.00 0.00 0.00 46 1012.1
20260505204543 82 23 3.0 3.0 0.00 0.00 0.00 46 1012.1
20260505203317 81 225 5.0 5.0 0.00 0.00 0.00 46 1012.1
20260505202754 81 113 2.0 3.0 0.00 0.00 0.00 46 1012.1
20260505202112 79 158 2.0 5.0 0.00 0.00 0.00 48 1012.5
20260505201533 79 45 5.0 5.0 0.00 0.00 0.00 47 1012.1
20260505200940 79 270 4.0 6.0 0.00 0.00 0.00 47 1012.5
20260505195709 78 158 3.0 3.0 0.00 0.00 0.00 48 1012.5
20260505194543 78 203 3.0 7.0 0.00 0.00 0.00 48 1012.8
20260505193940 79 113 3.0 4.0 0.00 0.00 0.00 48 1012.8
20260505193332 78 315 2.0 5.0 0.00 0.00 0.00 47 1013.2
20260505192115 79 270 3.0 9.0 0.00 0.00 0.00 47 1013.2
20260505190932 79 158 4.0 5.0 0.00 0.00 0.00 46 1013.5
20260505190336 80 0 5.0 6.0 0.00 0.00 0.00 45 1013.2
20260505185752 79 315 4.0 5.0 0.00 0.00 0.00 46 1013.2
20260505185140 80 23 5.0 9.0 0.00 0.00 0.00 45 1013.5
20260505184551 81 270 5.0 7.0 0.00 0.00 0.00 45 1013.5
20260505183341 81 0 2.0 6.0 0.00 0.00 0.00 46 1013.8
20260505181514 79 180 3.0 6.0 0.00 0.00 0.00 47 1014.2
20260505180926 80 315 4.0 6.0 0.00 0.00 0.00 48 1013.8
20260505180313 78 45 2.0 6.0 0.00 0.00 0.00 48 1013.8
20260505175713 78 270 3.0 3.0 0.00 0.00 0.00 48 1014.2
20260505175125 77 248 5.0 5.0 0.00 0.00 0.00 49 1014.2
20260505174525 77 113 2.0 7.0 0.00 0.00 0.00 49 1014.5
20260505173933 78 270 4.0 9.0 0.00 0.00 0.00 49 1014.5
20260505173350 77 315 4.0 8.0 0.00 0.00 0.00 50 1014.5
20260505172720 77 203 2.0 2.0 0.00 0.00 0.00 51 1014.5
20260505172131 76 90 6.0 7.0 0.00 0.00 0.00 51 1014.5
20260505171517 76 203 3.0 6.0 0.00 0.00 0.00 52 1014.5
20260505170939 76 180 6.0 6.0 0.00 0.00 0.00 51 1014.5
20260505170328 76 225 7.0 7.0 0.00 0.00 0.00 51 1014.5
20260505165708 77 338 3.0 3.0 0.00 0.00 0.00 51 1014.5
20260505165110 77 203 3.0 10.0 0.00 0.00 0.00 50 1014.5
20260505164512 77 135 5.0 9.0 0.00 0.00 0.00 50 1014.5
20260505163952 77 248 9.0 10.0 0.00 0.00 0.00 50 1014.5
20260505163316 76 158 4.0 8.0 0.00 0.00 0.00 51 1014.9
20260505162718 77 203 5.0 5.0 0.00 0.00 0.00 50 1014.5
20260505162148 77 293 4.0 7.0 0.00 0.00 0.00 50 1014.9
20260505161535 77 203 6.0 10.0 0.00 0.00 0.00 51 1014.9
20260505160921 77 180 4.0 6.0 0.00 0.00 0.00 50 1014.9
20260505160344 77 45 2.0 5.0 0.00 0.00 0.00 50 1014.9
20260505153319 78 158 2.0 3.0 0.00 0.00 0.00 50 1014.9
20260505152748 77 45 2.0 4.0 0.00 0.00 0.00 53 1014.9
20260505152114 77 158 7.0 8.0 0.00 0.00 0.00 52 1014.9
20260505151546 77 315 2.0 7.0 0.00 0.00 0.00 51 1014.9
20260505150942 77 270 2.0 8.0 0.00 0.00 0.00 52 1014.9
20260505150331 77 225 5.0 11.0 0.00 0.00 0.00 51 1015.2
20260505140322 74 45 6.0 6.0 0.00 0.00 0.00 56 1015.2
20260505124537 61 68 2.0 2.0 0.00 0.00 0.00 89 1015.5
20260505123916 60 180 2.0 2.0 0.00 0.00 0.00 90 1015.5
20260505123326 58 203 2.0 2.0 0.00 0.00 0.00 92 1015.5
20260505122715 57 180 4.0 4.0 0.00 0.00 0.00 95 1015.5
20260505122122 57 248 2.0 3.0 0.00 0.00 0.00 96 1015.5
20260505120935 56 158 1.0 1.0 0.00 0.00 0.00 98 1015.2
20260505120316 55 225 0.0 0.0 0.00 0.00 0.00 99 1015.2
20260505115721 54 0 2.0 2.0 0.00 0.00 0.00 99 1015.2
20260505115152 53 113 1.0 2.0 0.00 0.00 0.00 99 1014.9
20260505114514 52 180 0.0 1.0 0.00 0.00 0.00 99 1014.9
20260505113925 52 338 1.0 4.0 0.00 0.00 0.00 99 1014.9
20260505113317 51 180 2.0 2.0 0.00 0.00 0.00 99 1014.9
20260505112135 50 270 0.0 2.0 0.00 0.00 0.00 99 1014.9
20260505111538 50 248 2.0 4.0 0.00 0.00 0.00 99 1014.9
20260505110926 50 180 0.0 0.0 0.00 0.00 0.00 99 1014.9
20260505110324 50 203 2.0 3.0 0.00 0.00 0.00 99 1014.9
20260505101527 49 203 2.0 3.0 0.00 0.00 0.00 99 1014.2
20260505100942 49 203 1.0 2.0 0.00 0.00 0.00 99 1014.2
20260505100313 49 225 2.0 2.0 0.00 0.00 0.00 99 1014.2
20260505095740 49 158 1.0 1.0 0.00 0.00 0.00 99 1014.2
20260505095146 49 270 0.0 3.0 0.00 0.00 0.00 99 1014.2
20260505094528 49 270 1.0 2.0 0.00 0.00 0.00 99 1013.8
20260505093910 49 248 0.0 1.0 0.00 0.00 0.00 99 1013.8
20260505093331 49 270 1.0 2.0 0.00 0.00 0.00 99 1013.8
20260505092734 50 203 0.0 0.0 0.00 0.00 0.00 99 1013.8
20260505092112 50 180 2.0 2.0 0.00 0.00 0.00 99 1013.8
20260505091543 50 248 2.0 3.0 0.00 0.00 0.00 99 1013.8
20260505090932 50 158 0.0 2.0 0.00 0.00 0.00 99 1013.8
20260505090330 50 203 2.0 3.0 0.00 0.00 0.00 99 1013.8
20260505085725 50 203 2.0 2.0 0.00 0.00 0.00 99 1013.8
20260505085123 50 338 0.0 2.0 0.00 0.00 0.00 99 1013.8
20260505084548 50 158 2.0 2.0 0.00 0.00 0.00 99 1013.8
20260505083930 50 225 1.0 4.0 0.00 0.00 0.00 99 1013.5
20260505082713 50 158 0.0 0.0 0.00 0.00 0.00 99 1013.5
20260505081509 51 225 2.0 3.0 0.00 0.00 0.00 99 1013.8
20260505080952 51 225 2.0 3.0 0.00 0.00 0.00 99 1013.5
20260505080308 50 0 2.0 2.0 0.00 0.00 0.00 99 1013.5
20260505075729 51 180 2.0 2.0 0.00 0.00 0.00 99 1013.5
20260505075111 51 270 1.0 4.0 0.00 0.00 0.00 99 1013.5
20260505073939 51 270 1.0 3.0 0.00 0.00 0.00 99 1013.5
20260505073351 51 45 0.0 2.0 0.00 0.00 0.00 99 1013.5
20260505072150 51 315 0.0 3.0 0.00 0.00 0.00 99 1013.5
20260505070926 51 203 1.0 3.0 0.00 0.00 0.00 99 1013.5
20260505070310 51 293 2.0 2.0 0.00 0.00 0.00 99 1013.5
20260505065740 51 270 0.0 0.0 0.00 0.00 0.00 99 1013.5
20260505064531 52 225 0.0 1.0 0.00 0.00 0.00 99 1013.5
20260505063912 52 203 1.0 2.0 0.00 0.00 0.00 99 1013.5
20260505063352 52 248 2.0 2.0 0.00 0.00 0.00 99 1013.5
20260505062752 52 225 0.0 0.0 0.00 0.00 0.00 99 1013.5
20260505062120 52 225 1.0 2.0 0.00 0.00 0.00 99 1013.5
20260505060932 52 180 2.0 2.0 0.00 0.00 0.00 99 1013.5
20260505060347 53 225 1.0 2.0 0.00 0.00 0.00 99 1013.5
20260505055730 53 225 1.0 1.0 0.00 0.00 0.00 99 1013.5
20260505055120 53 158 0.0 2.0 0.00 0.00 0.00 99 1013.2
20260505054545 53 248 2.0 2.0 0.00 0.00 0.00 99 1013.2
20260505053930 53 180 1.0 1.0 0.00 0.00 0.00 99 1013.2
20260505053309 53 203 1.0 3.0 0.00 0.00 0.00 99 1013.2
20260505051537 54 270 0.0 2.0 0.00 0.00 0.00 99 1013.2
20260505050326 54 180 1.0 1.0 0.00 0.00 0.00 99 1013.2
20260505041526 55 293 0.0 1.0 0.00 0.00 0.00 99 1012.5
20260505040919 55 293 1.0 1.0 0.00 0.00 0.00 99 1012.5
20260505035138 56 248 1.0 2.0 0.00 0.00 0.00 99 1012.5
20260505034556 56 293 0.0 1.0 0.00 0.00 0.00 99 1012.1
20260505033913 56 180 0.0 2.0 0.00 0.00 0.00 99 1012.5
20260505033320 56 225 0.0 0.0 0.00 0.00 0.00 98 1012.5
20260505032719 56 180 1.0 1.0 0.00 0.00 0.00 98 1012.1
20260505032128 57 158 0.0 1.0 0.00 0.00 0.00 98 1012.1
20260505031514 57 23 0.0 1.0 0.00 0.00 0.00 97 1012.1
20260505030941 57 270 0.0 2.0 0.00 0.00 0.00 97 1012.1
20260505030344 57 248 1.0 2.0 0.00 0.00 0.00 97 1012.1
20260505025743 57 225 1.0 1.0 0.00 0.00 0.00 96 1012.1
20260505025129 58 225 0.0 1.0 0.00 0.00 0.00 95 1012.1
20260505024538 58 180 0.0 1.0 0.00 0.00 0.00 94 1012.1
20260505022123 59 135 0.0 2.0 0.00 0.00 0.00 91 1012.1
20260505021512 59 248 2.0 2.0 0.00 0.00 0.00 91 1012.1
20260505020926 59 270 0.0 1.0 0.00 0.00 0.00 91 1012.1
20260505020317 60 248 0.0 0.0 0.00 0.00 0.00 91 1012.1
20260505015154 61 248 1.0 1.0 0.00 0.00 0.00 88 1012.1
20260505014530 61 203 1.0 2.0 0.00 0.00 0.00 88 1012.1
20260505013918 62 180 1.0 2.0 0.00 0.00 0.00 87 1012.1
20260505013318 62 180 0.0 2.0 0.00 0.00 0.00 86 1012.1